• In India
  • List of Countries
  • For 7 days
  • Water Temperature
  • Satellite Maps
  • Weather Map
  • Weather Widgets
  • user-avatar
    Login

    Hourly Weather Strangnas

    Today, 23 September, Sunday

    Time Temperature Precipitation Wind Pressure Humidity
    00:00 +8°C° 0 mm 4 mps 745 mmHg 74%
    01:00 +8°C° 0 mm 4 mps 745 mmHg 76%
    02:00 +8°C° 0 mm 4 mps 745 mmHg 76%
    03:00 +8°C° 0 mm 4 mps 745 mmHg 75%
    04:00 +7°C° 0 mm 4 mps 745 mmHg 74%
    05:00 +8°C° 0 mm 4 mps 745 mmHg 74%
    06:00 +8°C° 0 mm 4 mps 746 mmHg 73%
    07:00 +9°C° 0 mm 3 mps 745 mmHg 71%
    08:00 +10°C° 0 mm 3 mps 746 mmHg 66%
    09:00 +11°C° 0 mm 3 mps 746 mmHg 62%
    10:00 +12°C° 0 mm 3 mps 747 mmHg 57%
    11:00 +13°C° 0.1 mm 3 mps 747 mmHg 56%
    12:00 +13°C° 0.1 mm 3 mps 747 mmHg 55%
    13:00 +13°C° 0.1 mm 3 mps 748 mmHg 53%
    14:00 +13°C° 0 mm 3 mps 748 mmHg 53%
    15:00 +13°C° 0 mm 3 mps 748 mmHg 53%
    16:00 +14°C° 0 mm 2 mps 748 mmHg 53%
    17:00 +13°C° 0.1 mm 2 mps 748 mmHg 60%
    18:00 +10°C° 0.1 mm 2 mps 748 mmHg 67%
    19:00 +9°C° 0.1 mm 2 mps 749 mmHg 73%
    20:00 +9°C° 0.1 mm 2 mps 749 mmHg 71%
    21:00 +8°C° 0.1 mm 3 mps 750 mmHg 69%
    22:00 +8°C° 0.1 mm 3 mps 750 mmHg 67%
    23:00 +7°C° 0 mm 3 mps 751 mmHg 67%

    Tomorrow, 24 September, Monday

    Time Temperature Precipitation Wind Pressure Humidity
    00:00 +7°C° 0 mm 3 mps 752 mmHg 66%
    01:00 +5°C° 0 mm 3 mps 752 mmHg 65%
    02:00 +4°C° 0 mm 3 mps 753 mmHg 67%
    03:00 +4°C° 0 mm 3 mps 753 mmHg 68%
    04:00 +3°C° 0 mm 3 mps 754 mmHg 70%
    05:00 +4°C° 0 mm 4 mps 755 mmHg 68%
    06:00 +4°C° 0 mm 4 mps 755 mmHg 67%
    07:00 +4°C° 0 mm 4 mps 756 mmHg 65%
    08:00 +6°C° 0 mm 5 mps 757 mmHg 58%
    09:00 +7°C° 0 mm 5 mps 757 mmHg 51%
    10:00 +8°C° 0 mm 5 mps 758 mmHg 44%
    11:00 +9°C° 0 mm 5 mps 758 mmHg 41%
    12:00 +9°C° 0 mm 5 mps 759 mmHg 39%
    13:00 +10°C° 0 mm 5 mps 759 mmHg 36%
    14:00 +10°C° 0 mm 5 mps 760 mmHg 37%
    15:00 +9°C° 0 mm 5 mps 760 mmHg 38%
    16:00 +9°C° 0 mm 5 mps 760 mmHg 39%
    17:00 +8°C° 0 mm 5 mps 761 mmHg 42%
    18:00 +7°C° 0 mm 5 mps 762 mmHg 46%
    19:00 +6°C° 0 mm 4 mps 762 mmHg 50%
    20:00 +5°C° 0 mm 5 mps 763 mmHg 51%
    21:00 +5°C° 0 mm 5 mps 763 mmHg 52%
    22:00 +5°C° 0 mm 5 mps 764 mmHg 54%
    23:00 +3°C° 0 mm 5 mps 764 mmHg 56%

    Day after tomorrow, 25 September, Tuesday

    Time Temperature Precipitation Wind Pressure Humidity
    00:00 +4°C° 0 mm 4 mps 765 mmHg 57%
    01:00 +3°C° 0 mm 4 mps 765 mmHg 59%
    02:00 +3°C° 0 mm 4 mps 766 mmHg 62%
    03:00 +3°C° 0 mm 4 mps 766 mmHg 65%
    04:00 +1°C° 0 mm 4 mps 767 mmHg 68%
    05:00 +2°C° 0 mm 3 mps 767 mmHg 68%
    06:00 +2°C° 0 mm 3 mps 767 mmHg 68%
    07:00 +3°C° 0 mm 3 mps 768 mmHg 67%
    08:00 +5°C° 0 mm 3 mps 768 mmHg 59%
    09:00 +7°C° 0 mm 3 mps 768 mmHg 50%
    10:00 +9°C° 0 mm 3 mps 768 mmHg 42%
    11:00 +10°C° 0 mm 4 mps 768 mmHg 39%
    12:00 +11°C° 0 mm 4 mps 767 mmHg 37%
    13:00 +12°C° 0 mm 5 mps 767 mmHg 34%
    14:00 +12°C° 0 mm 4 mps 767 mmHg 36%
    15:00 +12°C° 0 mm 4 mps 766 mmHg 37%
    16:00 +12°C° 0 mm 4 mps 766 mmHg 38%
    17:00 +10°C° 0 mm 4 mps 766 mmHg 44%
    18:00 +8°C° 0 mm 4 mps 765 mmHg 50%
    19:00 +8°C° 0 mm 3 mps 765 mmHg 56%
    20:00 +7°C° 0 mm 4 mps 765 mmHg 62%
    21:00 +7°C° 0 mm 4 mps 764 mmHg 68%
    22:00 +7°C° 0 mm 4 mps 764 mmHg 74%
    23:00 +8°C° 0 mm 5 mps 763 mmHg 75%

    26 September, Wednesday

    Time Temperature Precipitation Wind Pressure Humidity
    00:00 +8°C° 0 mm 5 mps 762 mmHg 76%
    01:00 +9°C° 0 mm 6 mps 761 mmHg 77%
    02:00 +9°C° 0.1 mm 6 mps 760 mmHg 77%
    03:00 +9°C° 0.1 mm 6 mps 759 mmHg 77%
    04:00 +9°C° 0.1 mm 7 mps 758 mmHg 77%
    05:00 +9°C° 0.6 mm 7 mps 757 mmHg 79%
    06:00 +9°C° 0.6 mm 7 mps 756 mmHg 82%
    07:00 +9°C° 0.6 mm 7 mps 755 mmHg 84%
    08:00 +10°C° 0.2 mm 7 mps 754 mmHg 84%
    09:00 +10°C° 0.2 mm 7 mps 754 mmHg 84%
    10:00 +11°C° 0.2 mm 7 mps 753 mmHg 84%
    11:00 +11°C° 0.2 mm 7 mps 752 mmHg 83%
    12:00 +13°C° 0.2 mm 6 mps 751 mmHg 83%
    13:00 +14°C° 0.2 mm 6 mps 751 mmHg 82%
    14:00 +14°C° 0.1 mm 6 mps 750 mmHg 81%
    15:00 +14°C° 0.1 mm 5 mps 750 mmHg 79%
    16:00 +14°C° 0.1 mm 5 mps 750 mmHg 78%
    17:00 +13°C° 0.2 mm 4 mps 750 mmHg 81%
    18:00 +12°C° 0.2 mm 4 mps 750 mmHg 83%
    19:00 +12°C° 0.2 mm 3 mps 751 mmHg 86%
    20:00 +11°C° 0.1 mm 3 mps 751 mmHg 85%
    21:00 +10°C° 0.1 mm 2 mps 752 mmHg 83%
    22:00 +9°C° 0.1 mm 2 mps 752 mmHg 82%
    23:00 +8°C° 0 mm 2 mps 753 mmHg 80%

    27 September, Thursday

    Time Temperature Precipitation Wind Pressure Humidity
    00:00 +7°C° 0 mm 2 mps 753 mmHg 77%
    01:00 +6°C° 0 mm 2 mps 753 mmHg 75%
    02:00 +6°C° 0 mm 2 mps 754 mmHg 74%
    03:00 +6°C° 0 mm 2 mps 754 mmHg 72%
    04:00 +5°C° 0 mm 2 mps 754 mmHg 71%
    05:00 +6°C° 0 mm 2 mps 754 mmHg 70%
    06:00 +6°C° 0 mm 2 mps 754 mmHg 68%
    07:00 +7°C° 0 mm 2 mps 754 mmHg 66%
    08:00 +8°C° 0.1 mm 1 mps 754 mmHg 66%
    09:00 +9°C° 0.1 mm 1 mps 754 mmHg 66%
    10:00 +9°C° 0.1 mm 1 mps 754 mmHg 66%
    11:00 +10°C° 0.1 mm 1 mps 754 mmHg 65%
    12:00 +11°C° 0.1 mm 1 mps 753 mmHg 64%
    13:00 +11°C° 0.1 mm 1 mps 753 mmHg 64%
    14:00 +11°C° 0 mm 1 mps 753 mmHg 64%
    15:00 +11°C° 0 mm 1 mps 753 mmHg 64%
    16:00 +11°C° 0 mm 1 mps 753 mmHg 64%
    17:00 +10°C° 0.1 mm 1 mps 752 mmHg 69%
    18:00 +10°C° 0.1 mm 1 mps 752 mmHg 75%
    19:00 +8°C° 0.1 mm 2 mps 751 mmHg 80%
    20:00 +8°C° 0.2 mm 2 mps 751 mmHg 83%
    21:00 +8°C° 0.2 mm 2 mps 751 mmHg 87%
    22:00 +7°C° 0.2 mm 2 mps 751 mmHg 90%
    23:00 +7°C° 0.1 mm 2 mps 751 mmHg 89%

    28 September, Friday

    Time Temperature Precipitation Wind Pressure Humidity
    00:00 +8°C° 0.1 mm 3 mps 751 mmHg 87%
    01:00 +8°C° 0.1 mm 3 mps 751 mmHg 85%
    02:00 +7°C° 0 mm 3 mps 752 mmHg 83%
    03:00 +5°C° 0 mm 4 mps 752 mmHg 81%
    04:00 +5°C° 0 mm 4 mps 753 mmHg 79%
    05:00 +4°C° 0 mm 4 mps 754 mmHg 78%
    06:00 +4°C° 0 mm 4 mps 755 mmHg 76%
    07:00 +4°C° 0 mm 4 mps 756 mmHg 75%
    08:00 +5°C° 0 mm 4 mps 756 mmHg 69%
    09:00 +6°C° 0 mm 4 mps 757 mmHg 63%
    10:00 +8°C° 0 mm 4 mps 758 mmHg 57%
    11:00 +10°C° 0 mm 4 mps 759 mmHg 52%
    12:00 +10°C° 0 mm 4 mps 759 mmHg 47%
    13:00 +11°C° 0 mm 4 mps 760 mmHg 43%
    14:00 +11°C° 0 mm 4 mps 760 mmHg 43%
    15:00 +11°C° 0 mm 3 mps 761 mmHg 43%
    16:00 +11°C° 0 mm 3 mps 761 mmHg 44%
    17:00 +9°C° 0 mm 2 mps 762 mmHg 49%
    18:00 +8°C° 0 mm 2 mps 762 mmHg 54%
    19:00 +7°C° 0 mm 2 mps 763 mmHg 59%
    20:00 +6°C° 0 mm 2 mps 763 mmHg 60%
    21:00 +6°C° 0 mm 2 mps 764 mmHg 61%
    22:00 +5°C° 0 mm 2 mps 764 mmHg 62%
    23:00 +5°C° 0 mm 2 mps 764 mmHg 63%
    Show more